Location: Unspecified
(43.9518°N, 0.0000°E)
Time: 02:59:00
(UTC+00:00)

SPOT 3 Rocket - Visible Passes

Search period start: 04 April 2026 00:00
Search period end: 14 April 2026 00:00
Orbit: 775 x 789 km, 98.5° (Epoch: 29 March)

Date Brightness Start Highest point End Pass type
(mag) Time Alt. Az. Time Alt. Az. Time Alt. Az.
4 Apr 5.4 19:46:49 12° ENE 19:48:07 14° ENE 19:50:35 10° NNE visible
4 Apr 3.7 21:27:22 68° NNW 21:27:22 68° NNW 21:31:55 10° NNW visible
4 Apr 6.3 23:07:55 11° WNW 23:07:55 11° WNW 23:08:28 10° WNW visible
5 Apr 3.9 20:55:02 47° ENE 20:55:02 47° ENE 20:59:54 10° N visible
5 Apr 5.6 22:35:35 22° WNW 22:35:35 22° WNW 22:38:34 10° NW visible
6 Apr 4.7 20:22:42 25° ENE 20:23:19 26° ENE 20:27:34 10° N visible
6 Apr 4.6 22:03:15 40° WNW 22:03:15 40° WNW 22:07:23 10° NNW visible
7 Apr 5.4 19:50:23 13° ENE 19:51:52 15° ENE 19:54:37 10° NNE visible
7 Apr 3.6 21:30:56 75° NW 21:30:56 75° NW 21:35:44 10° NNW visible
7 Apr 6.3 23:11:29 10° WNW 23:11:29 10° WNW 23:11:34 10° WNW visible
8 Apr 3.8 20:58:37 51° ENE 20:58:43 51° ENE 21:03:45 10° N visible
8 Apr 5.6 22:39:10 21° W 22:39:10 21° W 22:42:15 10° NW visible
9 Apr 4.6 20:26:17 27° E 20:27:06 28° ENE 20:31:27 10° N visible
9 Apr 4.6 22:06:49 39° W 22:06:49 39° W 22:11:08 10° NNW visible
10 Apr 5.3 19:53:57 14° E 19:55:37 16° ENE 19:58:38 10° NNE visible
10 Apr 3.6 21:34:30 77° WNW 21:34:30 77° WNW 21:39:32 10° NNW visible
11 Apr 3.7 21:02:11 54° E 21:02:31 55° ENE 21:07:35 10° N visible
11 Apr 5.6 22:42:44 19° W 22:42:44 19° W 22:45:55 10° NW visible
12 Apr 4.5 20:29:51 28° E 20:30:53 30° ENE 20:35:20 10° N visible
12 Apr 4.7 22:10:24 37° W 22:10:24 37° W 22:14:53 10° NNW visible
13 Apr 5.2 19:57:32 14° E 19:59:22 17° ENE 20:02:36 10° NNE visible
13 Apr 3.6 21:38:05 73° WSW 21:38:07 73° WSW 21:43:19 10° NNW visible
